Location: Musselburgh
(55.9419°N, 3.0539°W)
Time: 04:30:20
(UTC+01:00)

Envisat - Visible Passes

Search period start: 06 October 2022 00:00
Search period end: 16 October 2022 00:00
Orbit: 764 x 765 km, 98.2° (Epoch: 05 October)

Date Brightness Start Highest point End Pass type
(mag) Time Alt. Az. Time Alt. Az. Time Alt. Az.
06 Oct 5.0 04:46:00 10° NNE 04:50:23 28° E 04:54:44 10° SSE visible
06 Oct 3.1 06:24:44 10° N 06:29:45 59° WNW 06:34:44 10° SW visible
07 Oct 5.8 04:09:56 10° NE 04:12:56 16° E 04:15:55 10° ESE visible
07 Oct 3.1 05:47:41 10° NNE 05:52:49 78° ESE 05:57:54 10° SSW visible
08 Oct 4.2 05:10:51 10° NNE 05:15:42 42° E 05:20:31 10° SSE visible
08 Oct 3.5 06:49:59 10° N 06:54:43 40° WNW 06:59:26 10° SW visible
09 Oct 5.2 04:34:19 10° NE 04:38:22 23° E 04:42:25 10° SE visible
09 Oct 3.0 06:12:49 10° NNE 06:17:54 71° WNW 06:22:58 10° SSW visible
10 Oct 5.9 03:58:40 10° NE 04:00:52 13° E 04:03:04 10° ESE visible
10 Oct 3.4 05:35:50 10° NNE 05:40:55 65° ESE 05:45:58 10° S visible
11 Oct 4.5 04:59:04 10° NNE 05:03:44 35° E 05:08:22 10° SSE visible
11 Oct 3.3 06:38:02 10° N 06:42:55 48° WNW 06:47:46 10° SW visible
12 Oct 5.5 04:22:42 10° NE 04:26:21 20° E 04:30:00 10° SE visible
12 Oct 2.9 06:00:55 10° NNE 06:06:03 85° WNW 06:11:08 10° SSW visible
13 Oct 6.1 03:48:14 10° ENE 03:48:46 10° E 03:49:19 10° E visible
13 Oct 3.8 05:23:59 10° NNE 05:28:59 53° E 05:33:58 10° S visible
14 Oct 4.9 04:47:19 10° NNE 04:51:45 29° E 04:56:09 10° SSE visible
14 Oct 3.1 06:26:06 10° N 06:31:05 57° WNW 06:36:03 10° SW visible
15 Oct 5.7 04:11:11 10° NE 04:14:18 16° E 04:17:26 10° ESE visible
15 Oct 3.1 05:49:02 10° NNE 05:54:10 81° ESE 05:59:15 10° SSW visible
